Back to catalog

COSMOS 2251 DEB

AliveVLEO
NORAD 39546·DEBRIS·🇷🇺 Russia

Launched Jun 16, 1993 from Plesetsk Cosmodrome

Loading…

Next Passes (next 24 hours)

TLE

StaleSource: Space-Track

Epoch: Sep 4, 2026, 13:35 UTC

1 39546U 93036BUC 26247.56608860  .00004926  00000-0  40670-3 0  9999
2 39546  73.9976 318.7349 0038064  46.8703 313.5655 14.98704013684119

Track COSMOS 2251 DEB in real time with AllMySat

Download on the App Store